Alakanuk, AK

5:11 AM AKST on February 11, 2016 (GMT -0900)
Emmonak

Weather History for PAEM - February, 2013

Change the Weather History Date:

Tuesday, February 19, 2013

  Actual Average Record
Temperature  
Mean Temperature -2 °F -  
Max Temperature 1 °F 16 °F 35 °F (2005)
Min Temperature -5 °F 6 °F -18 °F (2002)
Degree Days  
Heating Degree Days 67    
Moisture  
Dew Point -11 °F    
Average Humidity 65    
Maximum Humidity 78    
Minimum Humidity 32    
Precipitation  
Precipitation 0.00 in - - ()
Sea Level Pressure  
Sea Level Pressure 29.53 in    
Wind  
Wind Speed 21 mph (NE)    
Max Wind Speed 29 mph    
Max Gust Speed 36 mph    
Visibility 9 miles    
Events      
Averages and records for this station are not official NWS values.
T = Trace of Precipitation, MM = Missing Value Source: NWS Daily Summary

Daily Weather History Graph

Daily Weather History Graph

Search for Another Location

Airport or City:

Trip Planner

Search our weather history database for the weather conditions in past years. The results will help you decide how hot, cold, wet, or windy it might be!

Date:

Astronomy

Feb. 19, 2013 Rise Set
Actual Time 9:32 AM AKST 6:51 PM AKST
Civil Twilight 8:45 AM AKST 7:39 PM AKST
Nautical Twilight 7:52 AM AKST 8:32 PM AKST
Astronomical Twilight 6:59 AM AKST 9:25 PM AKST
Moon 12:23 PM AKST (2/19) 6:24 AM AKST (2/19)
Length of Visible Light 10h 54m
Length of Day
9h 19m
Waxing Gibbous, 69% of the Moon is Illuminated
Feb 19
Waxing Gibbous
Feb 25
Full
Mar 4
Last Quarter
Mar 11
New
Mar 19
First Quarter

Hourly Weather History & Observations

Time (AKST) Temp. Windchill Dew Point Humidity Pressure Visibility Wind Dir Wind Speed Gust Speed Precip Events Conditions
12:14 AM -0.4 °F -22.8 °F -7.6 °F 72% 29.87 in 10.0 mi NE 20.7 mph - N/A   Scattered Clouds
3:05 AM 1.4 °F -17.6 °F -4.0 °F 78% 29.79 in 10.0 mi NE 15.0 mph - N/A   Partly Cloudy
6:12 AM -2.2 °F -22.2 °F -7.6 °F 78% 29.77 in 10.0 mi NE 15.0 mph - N/A   Clear
7:56 AM -4.0 °F -25.2 °F -9.4 °F 78% 29.72 in 10.0 mi NE 16.1 mph - N/A   Clear
8:16 AM -4.0 °F -26.4 °F -20.2 °F 46% 29.71 in 10.0 mi NE 18.4 mph - N/A   Clear
8:36 AM -5.8 °F -27.5 °F -20.2 °F 50% 29.71 in 10.0 mi NE 16.1 mph - N/A   Clear
8:56 AM -5.8 °F -27.5 °F -13.0 °F 71% 29.70 in 10.0 mi NE 16.1 mph - N/A   Clear
9:16 AM -5.8 °F -27.5 °F -13.0 °F 71% 29.69 in 10.0 mi NE 16.1 mph - N/A   Clear
9:56 AM -5.8 °F -28.2 °F -13.0 °F 71% 29.66 in 10.0 mi NE 17.3 mph - N/A   Clear
10:16 AM -4.0 °F -26.4 °F -13.0 °F 65% 29.65 in 10.0 mi NE 18.4 mph - N/A   Clear
10:36 AM -2.2 °F -25.2 °F -13.0 °F 60% 29.64 in 10.0 mi NE 20.7 mph - N/A   Clear
10:56 AM -2.2 °F -26.2 °F -11.2 °F 66% 29.63 in 10.0 mi NE 23.0 mph - N/A   Clear
11:16 AM -2.2 °F -24.7 °F -13.0 °F 60% 29.64 in 10.0 mi NE 19.6 mph 27.6 mph N/A   Clear
11:36 AM -2.2 °F -25.7 °F -13.0 °F 60% 29.63 in 10.0 mi NE 21.9 mph - N/A   Clear
11:56 AM -2.2 °F -26.7 °F -13.0 °F 60% 29.62 in 7.0 mi NE 24.2 mph - N/A   Clear
12:16 PM -2.2 °F -27.1 °F -14.8 °F 55% 29.61 in 4.0 mi NE 25.3 mph 31.1 mph N/A   Clear
12:36 PM -2.2 °F -25.7 °F -14.8 °F 55% 29.61 in 6.0 mi NE 21.9 mph 29.9 mph N/A   Clear
12:56 PM -2.2 °F -25.7 °F -14.8 °F 55% 29.60 in 9.0 mi NE 21.9 mph 29.9 mph N/A   Clear
1:16 PM -2.2 °F -26.7 °F - N/A% 29.59 in 8.0 mi NE 24.2 mph 28.8 mph N/A   Clear
1:36 PM -2.2 °F -26.7 °F -14.8 °F 55% 29.58 in 8.0 mi NE 24.2 mph - N/A   Clear
1:56 PM -2.2 °F -25.7 °F -25.6 °F 32% 29.56 in 10.0 mi NE 21.9 mph - N/A   Clear
2:16 PM -2.2 °F -25.7 °F -16.6 °F 50% 29.55 in 9.0 mi NE 21.9 mph - N/A   Clear
3:36 PM -0.4 °F -23.8 °F -9.4 °F 66% 29.52 in 9.0 mi NE 23.0 mph 31.1 mph N/A   Clear
3:56 PM -0.4 °F -21.7 °F -9.4 °F 66% 29.52 in 9.0 mi NE 18.4 mph 26.5 mph N/A   Clear
4:16 PM -0.4 °F -24.7 °F -9.4 °F 66% 29.50 in 10.0 mi NE 25.3 mph 29.9 mph N/A   Clear
4:36 PM -0.4 °F -24.7 °F -9.4 °F 66% 29.50 in 10.0 mi NE 25.3 mph - N/A   Clear
4:56 PM -0.4 °F -23.8 °F -9.4 °F 66% 29.50 in 10.0 mi NNE 23.0 mph - N/A   Clear
5:16 PM -0.4 °F -23.8 °F -9.4 °F 66% 29.49 in 10.0 mi NE 23.0 mph 29.9 mph N/A   Clear
5:36 PM -0.4 °F -23.8 °F -9.4 °F 66% 29.49 in 10.0 mi NE 23.0 mph 27.6 mph N/A   Clear
5:56 PM -0.4 °F -22.3 °F -9.4 °F 66% 29.48 in 10.0 mi NE 19.6 mph 28.8 mph N/A   Clear
6:16 PM -0.4 °F -24.7 °F -9.4 °F 66% 29.45 in 10.0 mi NNE 25.3 mph 32.2 mph N/A   Clear
6:36 PM -2.2 °F -26.2 °F -9.4 °F 71% 29.45 in 10.0 mi NNE 23.0 mph - N/A   Clear
6:56 PM -2.2 °F -25.7 °F -9.4 °F 71% 29.44 in 10.0 mi NE 21.9 mph 27.6 mph N/A   Clear
7:16 PM -2.2 °F -26.7 °F -11.2 °F 66% 29.43 in 8.0 mi NE 24.2 mph 31.1 mph N/A   Clear
7:36 PM -0.4 °F -25.2 °F -9.4 °F 66% 29.42 in 5.0 mi NE 26.5 mph 32.2 mph N/A   Clear
7:56 PM -0.4 °F -23.8 °F -9.4 °F 66% 29.42 in 8.0 mi NE 23.0 mph 32.2 mph N/A   Clear
8:16 PM -0.4 °F -25.2 °F -9.4 °F 66% 29.41 in 10.0 mi NE 26.5 mph 32.2 mph N/A   Clear
8:36 PM -0.4 °F -25.2 °F -9.4 °F 66% 29.41 in 8.0 mi NE 26.5 mph 32.2 mph N/A   Clear
8:56 PM -0.4 °F -26.0 °F -9.4 °F 66% 29.39 in 4.0 mi NE 28.8 mph 35.7 mph N/A   Clear
9:16 PM -0.4 °F -24.7 °F -9.4 °F 66% 29.40 in 7.0 mi NE 25.3 mph 33.4 mph N/A   Clear
9:36 PM -2.2 °F -28.4 °F -9.4 °F 71% 29.38 in 5.0 mi NE 28.8 mph 35.7 mph N/A   Clear
9:56 PM -2.2 °F -26.7 °F -9.4 °F 71% 29.38 in 6.0 mi NE 24.2 mph 32.2 mph N/A   Clear
10:16 PM -2.2 °F -27.1 °F -9.4 °F 71% 29.38 in 7.0 mi NE 25.3 mph 33.4 mph N/A   Clear
10:36 PM -2.2 °F -28.0 °F -9.4 °F 71% 29.37 in 9.0 mi NE 27.6 mph 32.2 mph N/A   Clear
10:56 PM -2.2 °F -25.7 °F -11.2 °F 66% 29.36 in 8.0 mi NE 21.9 mph 32.2 mph N/A   Clear
11:16 PM -2.2 °F -27.1 °F -11.2 °F 66% 29.35 in 9.0 mi NE 25.3 mph 31.1 mph N/A   Clear
11:36 PM -2.2 °F -25.2 °F -11.2 °F 66% 29.36 in 10.0 mi NE 20.7 mph 27.6 mph N/A   Clear
11:56 PM -2.2 °F -25.7 °F -11.2 °F 66% 29.35 in 6.0 mi NE 21.9 mph 32.2 mph N/A   Clear